This is the latest recevied weather packets stored in our database for station/object KG5TTF. If no packets are shown the sender has not sent any weather packets the latest 10 day(s).
| Time | Temp. | Humidity | Pressure | Rain* | Wind** | Luminosity | Snow |
|---|---|---|---|---|---|---|---|
| 1778019422 | 0.56° C | 99% | 1014.7 hPa | 0 mm | - | 73 W/m² | - |
| 1778019118 | 0.56° C | 99% | 1014.6 hPa | 0 mm | - | 75 W/m² | - |
| 1778018815 | 0.56° C | 99% | 1014.6 hPa | 1.78 mm | - | 66 W/m² | - |
| 1778018513 | 0.56° C | 99% | 1014.6 hPa | 1.78 mm | - | 92 W/m² | - |
| 1778018210 | 0.56° C | 99% | 1014.4 hPa | 1.78 mm | - | 95 W/m² | - |
| 1778017909 | 0.56° C | 99% | 1014.8 hPa | 1.78 mm | - | 94 W/m² | - |
| 1778017606 | 0.56° C | 99% | 1014.6 hPa | 0 mm | - | 102 W/m² | - |
| 1778017303 | 0.56° C | 99% | 1014.7 hPa | 0 mm | - | 105 W/m² | - |
| 1778017001 | 0.56° C | 99% | 1014.8 hPa | 1.27 mm | - | 100 W/m² | - |
| 1778016697 | 0.56° C | 99% | 1014.8 hPa | 1.27 mm | - | 102 W/m² | - |
| 1778016393 | 0.56° C | 99% | 1015.1 hPa | 0 mm | - | 101 W/m² | - |
| 1778016091 | 0.56° C | 99% | 1014.9 hPa | 1.78 mm | - | 144 W/m² | - |
| 1778015788 | 0.56° C | 99% | 1015.3 hPa | 1.78 mm | - | 110 W/m² | - |
| 1778015485 | 1.11° C | 99% | 1015.1 hPa | 1.27 mm | - | 100 W/m² | - |
| 1778015182 | 1.11° C | 99% | 1015.5 hPa | 1.27 mm | - | 115 W/m² | - |
| 1778014878 | 1.11° C | 99% | 1015.4 hPa | 1.78 mm | - | 124 W/m² | - |
| 1778014576 | 1.11° C | 99% | 1015.5 hPa | 1.78 mm | - | 118 W/m² | - |
| 1778014274 | 1.67° C | 99% | 1015.5 hPa | 1.27 mm | - | 101 W/m² | - |
| 1778013970 | 1.67° C | 99% | 1015.4 hPa | 1.27 mm | - | 112 W/m² | - |
| 1778013668 | 1.67° C | 99% | 1015.7 hPa | 0 mm | - | 133 W/m² | - |
| 1778013364 | 1.67° C | 99% | 1015.9 hPa | 1.78 mm | - | 171 W/m² | - |
| 1778013062 | 1.67° C | 99% | 1015.8 hPa | 1.78 mm | - | 177 W/m² | - |
| 1778012757 | 1.67° C | 99% | 1015.8 hPa | 0 mm | - | 153 W/m² | - |
| 1778012454 | 1.67° C | 99% | 1015.8 hPa | 0 mm | - | 159 W/m² | - |
| 1778012150 | 1.67° C | 99% | 1015.9 hPa | 1.27 mm | - | 128 W/m² | - |
* Rain latest hour (hover to see other rain measurements)
** Current wind speed in m/s (hover to see current wind gust speed)